Tracking 30415 objects as of 14-May-2025
HD Live streaming from Space Station
objects crossing your sky now

FAST

Track FAST now!
10-day predictions
FAST is classified as:


NORAD ID: 24285
Int'l Code: 1996-049A
Perigee: 353.7 km
Apogee: 3,230.8 km
Inclination: 82.9 °
Period: 122.3 minutes
Semi major axis: 8163 km
RCS: 1.3393 m2 (large)
Launch date: August 21, 1996
Source: United States (US)
Launch site: AIR FORCE WESTERN TEST RANGE (AFWTR)

Designed to study Earth's aurora.
Your satellite tracking list
Your tracking list is empty




NASA's NSSDC Master Catalog

Two Line Element Set (TLE):
1 24285U 96049A   25133.86676769  .00007540  00000-0  58804-3 0  9992
2 24285  82.9494 262.5981 1762255 218.9951 127.0189 11.77093197185552
Source of the keplerian elements: AFSPC